Weather Roundup
Issued by NWS Corpus Christi, TX

Home | Current Version | Previous Version | Text Only | Print | Product List | Glossary On
Versions: 1 2 3 4 5 6 7 8 9 10 11 12 13 14 15 16 17 18 19 20 21 22 23 24 25 26 27 28 29 30 31 32 33 34 35 36 37 38 39 40 41 42 43 44 45 46 47 48 49 50
000
ASUS44 KCRP 230810
HRRCRP

SOUTH TEXAS REGIONAL WEATHER ROUNDUP
NATIONAL WEATHER SERVICE CORPUS CHRISTI TX
300 AM CDT MON OCT 23 2017


TXZ229>244-230900-
...CORPUS CHRISTI AREA OBSERVATIONS...

CITY           SKY/WX    TMP DP  RH WIND       PRES   REMARKS
CORPUS CHRISTI CLEAR     59  58  96 NW3       30.14F
NAS CORPUS CHR CLEAR     70  60  70 NE8       30.13S
ROCKPORT       CLEAR     62  62 100 N5        30.14S
KINGSVILLE ARP FAIR      56  56 100 CALM      30.16S
KINGSVILLE NAS CLEAR     58  58 100 NW5       30.15S
ALICE          CLEAR     55  53  93 CALM      30.14F
$$

...VICTORIA AREA OBSERVATIONS...

CITY           SKY/WX    TMP DP  RH WIND       PRES   REMARKS
PORT LAVACA    PTCLDY    58  55  91 CALM      30.15R
VICTORIA       CLEAR     52  50  93 CALM      30.14F
BEEVILLE       FAIR      56  56 100 E3        30.14F
PLEASANTON     CLEAR     51  47  86 NW3       30.17S
SAN ANTONIO    CLEAR     56  49  77 NW6       30.17F
$$

...LAREDO AREA OBSERVATIONS...

CITY           SKY/WX    TMP DP  RH WIND       PRES   REMARKS
LAREDO         CLEAR     64  56  75 S5        30.16F
COTULLA        CLEAR     58  48  69 SE5       30.16S
DEL RIO        CLEAR     58  48  69 E6        30.15F
MCALLEN        PTCLDY    73  65  75 N9        30.14S
HEBBRONVILLE   CLEAR     57  53  84 CALM      30.16F
$$

...OTHER TEXAS OBSERVATIONS...

CITY           SKY/WX    TMP DP  RH WIND       PRES   REMARKS
BROWNSVILLE    CLOUDY    76  69  79 N5        30.11S
HOUSTON        CLEAR     57  51  80 CALM      30.13F
COL. STATION   CLEAR     54  48  80 CALM      30.15S
AUSTIN         PTCLDY    49  49 100 W3        30.16F
WACO           CLEAR     48  45  89 MISG      30.16S FOG
FORT WORTH     CLEAR     54  45  71 SW8       30.12S
WICHITA FALLS  CLEAR     47  38  71 S8        30.10F
LUBBOCK        CLOUDY    50  34  54 W8        30.15S
EL PASO        CLEAR     55  22  27 CALM      30.24S
$$

...MARINE OBSERVATIONS...

STATION/POSITION TIME  SKY/WX   TEMP    WIND        PRES    VSBY  WAVE   SWELL
                                AIR SEA DIR/SP/G                  HT/PER HT/PER
                 (UTC)          (F)     (DEG/KT/KT) (MB)    (MI)  (FT/S) (FT/S)
PORT ARANSAS     NOT AVBL
BUOY 90 E PORT A 0750            74 82  360/ 10/ 14 1019.7F         4/ 8   3/ 8
BUOY 200 E PT IS 0750            79 83   10/ 14/ 16 1017.7F         7/ 8   7/ 8
BUOY 15 E GALVES 0750            69 78   10/ 17/ 19 1019.2F         3/ 8   2/ 8
$$



USA.gov is the U.S. government's official web portal to all federal, state and local government web resources and services.